Time,TemperatureF,DewpointF,PressureIn,WindDirection,WindDirectionDegrees,WindSpeedMPH,WindSpeedGustMPH,Humidity,HourlyPrecipIn,Conditions,Clouds,dailyrainin,SoftwareType,DateUTC
2013-01-05 00:01:00,9.1,4.7,29.94,SW,225,0.0,0.0,82,0.00,,,0.00,WUHU21623XXSP,2013-01-05 06:01:00,
2013-01-05 00:06:00,8.6,4.2,29.95,SW,225,0.0,0.0,82,0.00,,,0.00,WUHU21623XXSP,2013-01-05 06:06:00,
2013-01-05 00:11:00,8.2,3.9,29.95,SW,225,0.0,0.0,82,0.00,,,0.00,WUHU21623XXSP,2013-01-05 06:11:00,
2013-01-05 00:16:00,7.5,2.9,29.95,SW,225,0.0,0.0,81,0.00,,,0.00,WUHU21623XXSP,2013-01-05 06:16:00,
2013-01-05 00:21:00,9.7,5.8,29.94,SW,225,0.0,0.0,84,0.00,,,0.00,WUHU21623XXSP,2013-01-05 06:21:00,
2013-01-05 00:26:00,10.0,6.1,29.94,SW,225,0.0,0.0,84,0.00,,,0.00,WUHU21623XXSP,2013-01-05 06:26:00,
2013-01-05 00:31:00,10.8,6.8,29.94,SW,225,0.0,0.0,84,0.00,,,0.00,WUHU21623XXSP,2013-01-05 06:31:00,
2013-01-05 00:36:00,10.0,5.8,29.93,SW,225,0.0,0.0,83,0.00,,,0.00,WUHU21623XXSP,2013-01-05 06:36:00,
2013-01-05 00:41:00,9.1,5.0,29.94,SW,225,0.0,0.0,83,0.00,,,0.00,WUHU21623XXSP,2013-01-05 06:41:00,
2013-01-05 00:46:00,8.8,4.4,29.94,SW,225,0.0,0.0,82,0.00,,,0.00,WUHU21623XXSP,2013-01-05 06:46:00,
2013-01-05 00:51:00,7.9,3.5,29.94,SW,225,0.0,0.0,82,0.00,,,0.00,WUHU21623XXSP,2013-01-05 06:51:00,
2013-01-05 00:56:00,8.2,3.9,29.94,SW,225,0.0,0.0,82,0.00,,,0.00,WUHU21623XXSP,2013-01-05 06:56:00,
2013-01-05 01:01:00,8.4,4.1,29.94,SW,225,0.0,0.0,82,0.00,,,0.00,WUHU21623XXSP,2013-01-05 07:01:00,
2013-01-05 01:06:00,9.7,5.5,29.94,SW,225,0.0,0.0,83,0.00,,,0.00,WUHU21623XXSP,2013-01-05 07:06:00,
2013-01-05 01:11:00,9.7,5.5,29.94,SW,225,0.0,0.0,83,0.00,,,0.00,WUHU21623XXSP,2013-01-05 07:11:00,
2013-01-05 01:16:00,9.3,5.2,29.94,SW,225,0.0,0.0,83,0.00,,,0.00,WUHU21623XXSP,2013-01-05 07:16:00,
2013-01-05 01:21:00,7.5,2.9,29.94,SW,225,0.0,0.0,81,0.00,,,0.00,WUHU21623XXSP,2013-01-05 07:21:00,
2013-01-05 01:26:00,6.6,2.0,29.94,SW,225,0.0,0.0,81,0.00,,,0.00,WUHU21623XXSP,2013-01-05 07:26:00,
2013-01-05 01:31:00,6.1,1.5,29.95,SW,225,0.0,0.0,81,0.00,,,0.00,WUHU21623XXSP,2013-01-05 07:31:00,
2013-01-05 01:36:00,6.1,1.5,29.94,SW,225,0.0,0.0,81,0.00,,,0.00,WUHU21623XXSP,2013-01-05 07:36:00,
2013-01-05 01:41:00,7.5,3.4,29.94,SW,225,0.0,0.0,83,0.00,,,0.00,WUHU21623XXSP,2013-01-05 07:41:00,
2013-01-05 01:46:00,8.4,4.3,29.94,SW,225,0.0,0.0,83,0.00,,,0.00,WUHU21623XXSP,2013-01-05 07:46:00,
2013-01-05 01:51:00,8.6,4.5,29.94,SW,225,0.0,0.0,83,0.00,,,0.00,WUHU21623XXSP,2013-01-05 07:51:00,
2013-01-05 01:56:00,9.0,4.8,29.94,SW,225,0.0,0.0,83,0.00,,,0.00,WUHU21623XXSP,2013-01-05 07:56:00,
2013-01-05 02:01:00,8.2,3.9,29.94,SW,225,0.0,0.0,82,0.00,,,0.00,WUHU21623XXSP,2013-01-05 08:01:00,
2013-01-05 02:06:00,7.5,3.2,29.94,SW,225,0.0,0.0,82,0.00,,,0.00,WUHU21623XXSP,2013-01-05 08:06:00,
2013-01-05 02:11:00,7.0,2.6,29.95,SW,225,0.0,0.0,82,0.00,,,0.00,WUHU21623XXSP,2013-01-05 08:11:00,
2013-01-05 02:16:00,5.7,0.9,29.94,SW,225,0.0,0.0,80,0.00,,,0.00,WUHU21623XXSP,2013-01-05 08:16:00,
2013-01-05 02:21:00,5.7,1.1,29.95,SW,225,0.0,0.0,81,0.00,,,0.00,WUHU21623XXSP,2013-01-05 08:21:00,
2013-01-05 02:26:00,5.7,1.1,29.94,SW,225,0.0,0.0,81,0.00,,,0.00,WUHU21623XXSP,2013-01-05 08:26:00,
2013-01-05 02:31:00,5.9,1.3,29.94,SSE,157,1.6,2.7,81,0.00,,,0.00,WUHU21623XXSP,2013-01-05 08:31:00,
2013-01-05 02:36:00,6.1,1.7,29.94,SSE,157,0.5,2.7,82,0.00,,,0.00,WUHU21623XXSP,2013-01-05 08:36:00,
2013-01-05 02:41:00,6.6,2.3,29.94,SSE,157,0.9,2.0,82,0.00,,,0.00,WUHU21623XXSP,2013-01-05 08:41:00,
2013-01-05 02:46:00,7.5,3.4,29.94,SE,135,0.4,2.7,83,0.00,,,0.00,WUHU21623XXSP,2013-01-05 08:46:00,
2013-01-05 02:51:00,8.2,4.1,29.93,SE,135,0.0,2.7,83,0.00,,,0.00,WUHU21623XXSP,2013-01-05 08:51:00,
2013-01-05 02:56:00,8.8,4.9,29.93,SE,135,0.0,0.0,84,0.00,,,0.00,WUHU21623XXSP,2013-01-05 08:56:00,
2013-01-05 03:01:00,9.0,4.8,29.93,SE,135,0.0,0.0,83,0.00,,,0.00,WUHU21623XXSP,2013-01-05 09:01:00,
2013-01-05 03:06:00,9.0,4.8,29.93,SE,135,0.0,0.0,83,0.00,,,0.00,WUHU21623XXSP,2013-01-05 09:06:00,
2013-01-05 03:11:00,9.0,4.8,29.93,SE,135,0.0,0.0,83,0.00,,,0.00,WUHU21623XXSP,2013-01-05 09:11:00,
2013-01-05 03:16:00,9.3,5.2,29.93,SE,135,0.1,0.9,83,0.00,,,0.00,WUHU21623XXSP,2013-01-05 09:16:00,
2013-01-05 03:21:00,8.6,4.5,29.93,SE,135,0.0,0.9,83,0.00,,,0.00,WUHU21623XXSP,2013-01-05 09:21:00,
2013-01-05 03:26:00,8.2,3.9,29.93,SE,135,0.0,0.0,82,0.00,,,0.00,WUHU21623XXSP,2013-01-05 09:26:00,
2013-01-05 03:31:00,8.6,4.5,29.93,SE,135,0.0,0.0,83,0.00,,,0.00,WUHU21623XXSP,2013-01-05 09:31:00,
2013-01-05 03:36:00,8.4,4.5,29.93,SE,135,0.0,0.0,83,0.00,,,0.00,WUHU21623XXSP,2013-01-05 09:36:00,
2013-01-05 03:41:00,8.2,3.9,29.93,SE,135,0.0,0.7,82,0.00,,,0.00,WUHU21623XXSP,2013-01-05 09:41:00,
2013-01-05 03:46:00,8.1,3.7,29.92,SE,135,0.0,0.9,82,0.00,,,0.00,WUHU21623XXSP,2013-01-05 09:46:00,
2013-01-05 03:51:00,8.2,3.9,29.92,SE,135,0.0,0.9,82,0.00,,,0.00,WUHU21623XXSP,2013-01-05 09:51:00,
2013-01-05 03:56:00,8.4,4.3,29.92,SE,135,0.0,0.0,83,0.00,,,0.00,WUHU21623XXSP,2013-01-05 09:56:00,
2013-01-05 04:01:00,8.4,4.3,29.92,SE,135,0.0,0.0,83,0.00,,,0.00,WUHU21623XXSP,2013-01-05 10:01:00,
2013-01-05 04:06:00,7.9,3.5,29.92,SE,135,0.0,0.0,82,0.00,,,0.00,WUHU21623XXSP,2013-01-05 10:06:00,
2013-01-05 04:11:00,8.4,4.3,29.92,SE,135,0.0,0.0,83,0.00,,,0.00,WUHU21623XXSP,2013-01-05 10:11:00,
2013-01-05 04:16:00,8.1,3.7,29.91,SE,135,0.0,0.0,82,0.00,,,0.00,WUHU21623XXSP,2013-01-05 10:16:00,
2013-01-05 04:21:00,7.7,3.3,29.91,SE,135,0.0,0.0,82,0.00,,,0.00,WUHU21623XXSP,2013-01-05 10:21:00,
2013-01-05 04:26:00,7.7,3.3,29.91,SE,135,0.0,0.0,82,0.00,,,0.00,WUHU21623XXSP,2013-01-05 10:26:00,
2013-01-05 04:31:00,7.5,3.2,29.91,SE,135,0.0,0.0,82,0.00,,,0.00,WUHU21623XXSP,2013-01-05 10:31:00,
2013-01-05 04:36:00,7.0,2.6,29.90,SE,135,0.0,0.0,82,0.00,,,0.00,WUHU21623XXSP,2013-01-05 10:36:00,
2013-01-05 04:41:00,6.4,1.8,29.90,SE,135,0.0,0.4,81,0.00,,,0.00,WUHU21623XXSP,2013-01-05 10:41:00,
2013-01-05 04:46:00,5.0,0.1,29.90,SE,135,0.3,1.8,80,0.00,,,0.00,WUHU21623XXSP,2013-01-05 10:46:00,
2013-01-05 04:51:00,6.1,1.7,29.90,SE,135,0.0,1.8,82,0.00,,,0.00,WUHU21623XXSP,2013-01-05 10:51:00,
2013-01-05 04:56:00,6.6,2.3,29.90,SE,135,1.1,1.3,82,0.00,,,0.00,WUHU21623XXSP,2013-01-05 10:56:00,
2013-01-05 05:01:00,6.6,2.3,29.90,SE,135,0.0,1.3,82,0.00,,,0.00,WUHU21623XXSP,2013-01-05 11:01:00,
2013-01-05 05:06:00,6.6,2.3,29.89,SE,135,0.0,0.0,82,0.00,,,0.00,WUHU21623XXSP,2013-01-05 11:06:00,
2013-01-05 05:11:00,6.4,1.8,29.89,SE,135,0.0,0.0,81,0.00,,,0.00,WUHU21623XXSP,2013-01-05 11:11:00,
2013-01-05 05:16:00,7.0,2.6,29.89,SE,135,0.1,0.9,82,0.00,,,0.00,WUHU21623XXSP,2013-01-05 11:16:00,
2013-01-05 05:21:00,7.5,3.0,29.89,SE,135,0.0,0.9,82,0.00,,,0.00,WUHU21623XXSP,2013-01-05 11:21:00,
2013-01-05 05:26:00,7.5,3.2,29.89,SE,135,0.0,0.0,82,0.00,,,0.00,WUHU21623XXSP,2013-01-05 11:26:00,
2013-01-05 05:31:00,7.7,3.3,29.89,SE,135,0.0,0.0,82,0.00,,,0.00,WUHU21623XXSP,2013-01-05 11:31:00,
2013-01-05 05:36:00,8.4,4.3,29.89,SE,135,0.0,0.0,83,0.00,,,0.00,WUHU21623XXSP,2013-01-05 11:36:00,
2013-01-05 05:41:00,7.7,3.3,29.89,SE,135,0.0,0.0,82,0.00,,,0.00,WUHU21623XXSP,2013-01-05 11:41:00,
2013-01-05 05:46:00,7.3,3.0,29.89,SE,135,0.0,0.0,82,0.00,,,0.00,WUHU21623XXSP,2013-01-05 11:46:00,
2013-01-05 05:51:00,7.2,2.8,29.88,SE,135,0.0,0.0,82,0.00,,,0.00,WUHU21623XXSP,2013-01-05 11:51:00,
2013-01-05 05:56:00,7.2,2.8,29.88,SE,135,0.0,0.0,82,0.00,,,0.00,WUHU21623XXSP,2013-01-05 11:56:00,
2013-01-05 06:01:00,6.6,2.3,29.88,SE,135,0.0,0.0,82,0.00,,,0.00,WUHU21623XXSP,2013-01-05 12:01:00,
2013-01-05 06:06:00,6.4,2.1,29.88,SE,135,0.0,0.0,82,0.00,,,0.00,WUHU21623XXSP,2013-01-05 12:06:00,
2013-01-05 06:11:00,5.9,1.3,29.88,ESE,112,0.0,0.0,81,0.00,,,0.00,WUHU21623XXSP,2013-01-05 12:11:00,
2013-01-05 06:16:00,5.9,1.3,29.88,ESE,112,0.0,0.0,81,0.00,,,0.00,WUHU21623XXSP,2013-01-05 12:16:00,
2013-01-05 06:21:00,6.4,2.1,29.88,ESE,112,0.0,0.0,82,0.00,,,0.00,WUHU21623XXSP,2013-01-05 12:21:00,
2013-01-05 06:26:00,6.4,2.1,29.88,ESE,112,0.0,0.0,82,0.00,,,0.00,WUHU21623XXSP,2013-01-05 12:26:00,
2013-01-05 06:31:00,6.1,1.7,29.88,ESE,112,0.0,0.0,82,0.00,,,0.00,WUHU21623XXSP,2013-01-05 12:31:00,
2013-01-05 06:36:00,5.9,1.3,29.88,ESE,112,0.0,0.0,81,0.00,,,0.00,WUHU21623XXSP,2013-01-05 12:36:00,
2013-01-05 06:41:00,5.7,1.1,29.88,ESE,112,0.0,0.0,81,0.00,,,0.00,WUHU21623XXSP,2013-01-05 12:41:00,
2013-01-05 06:46:00,4.8,0.0,29.87,ESE,112,0.0,0.0,80,0.00,,,0.00,WUHU21623XXSP,2013-01-05 12:46:00,
2013-01-05 06:51:00,4.5,-0.1,29.87,ESE,112,0.3,1.3,81,0.00,,,0.00,WUHU21623XXSP,2013-01-05 12:51:00,
2013-01-05 06:56:00,4.1,-0.8,29.86,ESE,112,0.0,1.3,80,0.00,,,0.00,WUHU21623XXSP,2013-01-05 12:56:00,
2013-01-05 07:01:00,4.1,-0.5,29.86,SE,135,0.0,0.9,81,0.00,,,0.00,WUHU21623XXSP,2013-01-05 13:01:00,
2013-01-05 07:06:00,4.1,-0.5,29.86,SE,135,0.0,1.3,81,0.00,,,0.00,WUHU21623XXSP,2013-01-05 13:06:00,
2013-01-05 07:11:00,3.9,-0.7,29.87,SE,135,0.0,1.3,81,0.00,,,0.00,WUHU21623XXSP,2013-01-05 13:11:00,
2013-01-05 07:16:00,4.8,0.2,29.86,SE,135,0.1,0.9,81,0.00,,,0.00,WUHU21623XXSP,2013-01-05 13:16:00,
2013-01-05 07:21:00,4.8,0.2,29.86,SE,135,0.0,0.9,81,0.00,,,0.00,WUHU21623XXSP,2013-01-05 13:21:00,
2013-01-05 07:26:00,4.6,0.0,29.86,SE,135,0.0,0.0,81,0.00,,,0.00,WUHU21623XXSP,2013-01-05 13:26:00,
2013-01-05 07:31:00,4.5,-0.1,29.86,SE,135,0.0,0.0,81,0.00,,,0.00,WUHU21623XXSP,2013-01-05 13:31:00,
2013-01-05 07:36:00,4.6,0.0,29.85,SE,135,0.0,0.0,81,0.00,,,0.00,WUHU21623XXSP,2013-01-05 13:36:00,
2013-01-05 07:41:00,5.0,0.4,29.85,SE,135,0.0,0.0,81,0.00,,,0.00,WUHU21623XXSP,2013-01-05 13:41:00,
2013-01-05 07:46:00,4.8,0.2,29.86,SE,135,0.0,0.0,81,0.00,,,0.00,WUHU21623XXSP,2013-01-05 13:46:00,
2013-01-05 07:51:00,3.9,-0.9,29.86,SE,135,0.0,0.0,80,0.00,,,0.00,WUHU21623XXSP,2013-01-05 13:51:00,
2013-01-05 07:56:00,4.8,0.5,29.86,SE,135,0.0,0.0,82,0.00,,,0.00,WUHU21623XXSP,2013-01-05 13:56:00,
2013-01-05 08:01:00,5.7,1.4,29.85,SE,135,0.0,0.0,82,0.00,,,0.00,WUHU21623XXSP,2013-01-05 14:01:00,
2013-01-05 08:06:00,6.4,2.1,29.85,SE,135,0.0,0.0,82,0.00,,,0.00,WUHU21623XXSP,2013-01-05 14:06:00,
2013-01-05 08:11:00,6.8,2.4,29.85,SE,135,0.0,0.0,82,0.00,,,0.00,WUHU21623XXSP,2013-01-05 14:11:00,
2013-01-05 08:16:00,5.7,0.9,29.85,SE,135,0.0,0.0,80,0.00,,,0.00,WUHU21623XXSP,2013-01-05 14:16:00,
2013-01-05 08:21:00,5.4,0.5,29.85,SE,135,0.0,0.0,80,0.00,,,0.00,WUHU21623XXSP,2013-01-05 14:21:00,
2013-01-05 08:26:00,5.4,0.8,29.85,SE,135,0.0,0.0,81,0.00,,,0.00,WUHU21623XXSP,2013-01-05 14:26:00,
2013-01-05 08:31:00,4.6,-0.2,29.85,SE,135,0.0,0.0,80,0.00,,,0.00,WUHU21623XXSP,2013-01-05 14:31:00,
2013-01-05 08:36:00,4.6,-0.2,29.85,SE,135,0.0,0.0,80,0.00,,,0.00,WUHU21623XXSP,2013-01-05 14:36:00,
2013-01-05 08:41:00,5.4,0.8,29.85,SE,135,0.0,0.0,81,0.00,,,0.00,WUHU21623XXSP,2013-01-05 14:41:00,
2013-01-05 08:46:00,5.7,1.1,29.85,SE,135,0.0,0.0,81,0.00,,,0.00,WUHU21623XXSP,2013-01-05 14:46:00,
2013-01-05 08:51:00,7.2,2.8,29.85,SSE,157,0.4,2.7,82,0.00,,,0.00,WUHU21623XXSP,2013-01-05 14:51:00,
2013-01-05 08:56:00,9.1,5.0,29.85,SSE,157,0.1,2.7,83,0.00,,,0.00,WUHU21623XXSP,2013-01-05 14:56:00,
2013-01-05 09:01:00,10.6,6.1,29.85,SSE,157,0.4,1.8,82,0.00,,,0.00,WUHU21623XXSP,2013-01-05 15:01:00,
2013-01-05 09:06:00,11.3,7.1,29.84,SSE,157,1.8,2.2,83,0.00,,,0.00,WUHU21623XXSP,2013-01-05 15:06:00,
2013-01-05 09:11:00,12.2,7.7,29.84,SSE,157,0.3,2.7,82,0.00,,,0.00,WUHU21623XXSP,2013-01-05 15:11:00,
2013-01-05 09:16:00,12.2,8.0,29.84,SSE,157,0.5,2.7,83,0.00,,,0.00,WUHU21623XXSP,2013-01-05 15:16:00,
2013-01-05 09:21:00,13.3,9.1,29.84,SSE,157,0.0,1.8,83,0.00,,,0.00,WUHU21623XXSP,2013-01-05 15:21:00,
2013-01-05 09:26:00,13.8,9.6,29.84,SSE,157,0.1,1.1,83,0.00,,,0.00,WUHU21623XXSP,2013-01-05 15:26:00,
2013-01-05 09:31:00,14.7,10.5,29.85,SSE,157,0.2,1.1,83,0.00,,,0.00,WUHU21623XXSP,2013-01-05 15:31:00,
2013-01-05 09:36:00,14.9,10.6,29.85,SSE,157,0.9,3.1,83,0.00,,,0.00,WUHU21623XXSP,2013-01-05 15:36:00,
2013-01-05 09:41:00,15.6,11.6,29.84,South,180,1.6,3.4,84,0.00,,,0.00,WUHU21623XXSP,2013-01-05 15:41:00,
2013-01-05 09:46:00,16.3,12.3,29.84,South,180,1.8,3.4,84,0.00,,,0.00,WUHU21623XXSP,2013-01-05 15:46:00,
2013-01-05 09:51:00,16.5,12.4,29.84,SE,141,1.3,3.4,84,0.00,,,0.00,WUHU21623XXSP,2013-01-05 15:51:00,
2013-01-05 09:56:00,16.9,12.8,29.85,SSE,157,0.7,3.6,84,0.00,,,0.00,WUHU21623XXSP,2013-01-05 15:56:00,
2013-01-05 10:01:00,17.2,13.1,29.85,South,180,2.0,3.6,84,0.00,,,0.00,WUHU21623XXSP,2013-01-05 16:01:00,
2013-01-05 10:06:00,17.8,13.6,29.85,SSE,153,2.5,7.2,84,0.00,,,0.00,WUHU21623XXSP,2013-01-05 16:06:00,
2013-01-05 10:11:00,18.1,14.3,29.85,SSE,157,3.6,7.2,85,0.00,,,0.00,WUHU21623XXSP,2013-01-05 16:11:00,
2013-01-05 10:16:00,18.7,14.8,29.85,SE,135,2.0,3.6,85,0.00,,,0.00,WUHU21623XXSP,2013-01-05 16:16:00,
2013-01-05 10:21:00,19.0,15.2,29.85,SE,135,1.1,4.0,85,0.00,,,0.00,WUHU21623XXSP,2013-01-05 16:21:00,
2013-01-05 10:26:00,19.2,15.3,29.85,South,170,2.1,4.0,85,0.00,,,0.00,WUHU21623XXSP,2013-01-05 16:26:00,
2013-01-05 10:31:00,19.6,15.7,29.84,SE,135,5.1,5.1,85,0.00,,,0.00,WUHU21623XXSP,2013-01-05 16:31:00,
2013-01-05 10:36:00,19.9,16.1,29.84,SSE,157,4.3,5.1,85,0.00,,,0.00,WUHU21623XXSP,2013-01-05 16:36:00,
2013-01-05 10:41:00,20.3,16.4,29.84,SE,135,0.0,4.3,85,0.00,,,0.00,WUHU21623XXSP,2013-01-05 16:41:00,
2013-01-05 10:46:00,20.7,16.8,29.85,South,180,0.0,4.0,85,0.00,,,0.00,WUHU21623XXSP,2013-01-05 16:46:00,
2013-01-05 10:51:00,20.8,17.0,29.84,South,180,0.0,2.0,85,0.00,,,0.00,WUHU21623XXSP,2013-01-05 16:51:00,
2013-01-05 10:56:00,21.0,17.1,29.84,SSW,202,0.0,0.0,85,0.00,,,0.00,WUHU21623XXSP,2013-01-05 16:56:00,
2013-01-05 11:01:00,21.0,17.1,29.84,SSW,202,0.0,1.3,85,0.00,,,0.00,WUHU21623XXSP,2013-01-05 17:01:00,
2013-01-05 11:06:00,21.0,17.1,29.84,South,180,0.0,1.3,85,0.00,,,0.00,WUHU21623XXSP,2013-01-05 17:06:00,
2013-01-05 11:11:00,21.4,17.5,29.84,SSW,202,0.0,2.0,85,0.00,,,0.00,WUHU21623XXSP,2013-01-05 17:11:00,
2013-01-05 11:16:00,21.9,18.0,29.83,SSW,202,0.0,2.0,85,0.00,,,0.00,WUHU21623XXSP,2013-01-05 17:16:00,
2013-01-05 11:21:00,21.6,17.7,29.83,South,180,0.0,0.0,85,0.00,,,0.00,WUHU21623XXSP,2013-01-05 17:21:00,
2013-01-05 11:26:00,21.7,17.9,29.83,South,180,1.8,1.8,85,0.00,,,0.00,WUHU21623XXSP,2013-01-05 17:26:00,
2013-01-05 11:31:00,21.4,17.5,29.82,South,180,0.0,1.8,85,0.00,,,0.00,WUHU21623XXSP,2013-01-05 17:31:00,
2013-01-05 11:36:00,21.0,17.1,29.82,South,180,0.7,1.6,85,0.00,,,0.00,WUHU21623XXSP,2013-01-05 17:36:00,
2013-01-05 11:41:00,21.4,17.5,29.81,South,180,0.0,1.6,85,0.00,,,0.00,WUHU21623XXSP,2013-01-05 17:41:00,
2013-01-05 11:46:00,21.7,17.9,29.81,South,180,0.0,0.9,85,0.00,,,0.00,WUHU21623XXSP,2013-01-05 17:46:00,
2013-01-05 11:51:00,21.9,18.0,29.81,South,180,0.4,1.1,85,0.00,,,0.00,WUHU21623XXSP,2013-01-05 17:51:00,
2013-01-05 11:56:00,21.9,18.0,29.80,South,180,0.1,1.3,85,0.00,,,0.00,WUHU21623XXSP,2013-01-05 17:56:00,
2013-01-05 12:01:00,21.4,17.5,29.80,ESE,104,1.2,2.0,85,0.00,,,0.00,WUHU21623XXSP,2013-01-05 18:01:00,
2013-01-05 12:06:00,21.0,17.1,29.80,ENE,67,1.1,2.0,85,0.00,,,0.00,WUHU21623XXSP,2013-01-05 18:06:00,
2013-01-05 12:11:00,21.0,17.1,29.80,ENE,67,0.0,2.5,85,0.00,,,0.00,WUHU21623XXSP,2013-01-05 18:11:00,
2013-01-05 12:16:00,21.0,17.1,29.79,ENE,67,0.9,2.5,85,0.00,,,0.00,WUHU21623XXSP,2013-01-05 18:16:00,
2013-01-05 12:21:00,20.8,17.0,29.79,ENE,67,0.3,2.2,85,0.00,,,0.00,WUHU21623XXSP,2013-01-05 18:21:00,
2013-01-05 12:26:00,20.5,16.6,29.79,NE,45,2.2,3.1,85,0.00,,,0.00,WUHU21623XXSP,2013-01-05 18:26:00,
2013-01-05 12:31:00,20.5,16.6,29.79,ENE,67,1.6,3.1,85,0.00,,,0.00,WUHU21623XXSP,2013-01-05 18:31:00,
2013-01-05 12:36:00,20.3,16.4,29.79,NE,45,1.1,2.9,85,0.00,,,0.00,WUHU21623XXSP,2013-01-05 18:36:00,
2013-01-05 12:41:00,20.5,16.6,29.78,NE,45,0.7,3.6,85,0.00,,,0.00,WUHU21623XXSP,2013-01-05 18:41:00,
2013-01-05 12:46:00,20.3,16.2,29.78,NE,45,1.1,3.6,84,0.00,,,0.00,WUHU21623XXSP,2013-01-05 18:46:00,
2013-01-05 12:51:00,20.5,16.6,29.78,NE,45,2.5,3.1,85,0.00,,,0.00,WUHU21623XXSP,2013-01-05 18:51:00,
2013-01-05 12:56:00,20.8,16.7,29.78,NE,45,2.2,3.1,84,0.00,,,0.00,WUHU21623XXSP,2013-01-05 18:56:00,
2013-01-05 13:01:00,21.0,16.9,29.78,NNE,22,0.9,2.9,84,0.00,,,0.00,WUHU21623XXSP,2013-01-05 19:01:00,
2013-01-05 13:06:00,21.4,17.0,29.78,NNE,22,1.2,2.9,83,0.00,,,0.00,WUHU21623XXSP,2013-01-05 19:06:00,
2013-01-05 13:11:00,21.4,17.0,29.78,NNW,337,1.8,2.9,83,0.00,,,0.00,WUHU21623XXSP,2013-01-05 19:11:00,
2013-01-05 13:16:00,21.4,17.2,29.78,North,0,2.0,3.8,84,0.00,,,0.00,WUHU21623XXSP,2013-01-05 19:16:00,
2013-01-05 13:21:00,21.4,17.0,29.78,North,0,2.1,3.8,83,0.00,,,0.00,WUHU21623XXSP,2013-01-05 19:21:00,
2013-01-05 13:26:00,21.4,17.0,29.78,North,0,0.0,3.6,83,0.00,,,0.00,WUHU21623XXSP,2013-01-05 19:26:00,
2013-01-05 13:31:00,21.7,17.3,29.77,NW,315,0.1,2.7,83,0.00,,,0.00,WUHU21623XXSP,2013-01-05 19:31:00,
2013-01-05 13:36:00,21.7,17.3,29.77,NNW,337,0.0,2.9,83,0.00,,,0.00,WUHU21623XXSP,2013-01-05 19:36:00,
2013-01-05 13:41:00,21.9,17.5,29.77,NNW,337,0.1,2.9,83,0.00,,,0.00,WUHU21623XXSP,2013-01-05 19:41:00,
2013-01-05 13:46:00,21.9,17.5,29.77,NNW,337,1.3,1.3,83,0.00,,,0.00,WUHU21623XXSP,2013-01-05 19:46:00,
2013-01-05 13:51:00,22.5,18.0,29.77,NNW,337,1.6,2.2,83,0.00,,,0.00,WUHU21623XXSP,2013-01-05 19:51:00,
2013-01-05 13:56:00,22.8,18.4,29.76,NNW,337,1.3,2.2,83,0.00,,,0.00,WUHU21623XXSP,2013-01-05 19:56:00,
2013-01-05 14:01:00,22.8,18.4,29.76,NNW,337,0.9,2.2,83,0.00,,,0.00,WUHU21623XXSP,2013-01-05 20:01:00,
2013-01-05 14:06:00,23.0,18.3,29.76,NNW,337,1.1,1.6,82,0.00,,,0.00,WUHU21623XXSP,2013-01-05 20:06:00,
2013-01-05 14:11:00,23.0,18.3,29.76,NNW,337,0.0,1.6,82,0.00,,,0.00,WUHU21623XXSP,2013-01-05 20:11:00,
2013-01-05 14:16:00,23.0,18.6,29.76,NNW,337,0.0,0.0,83,0.00,,,0.00,WUHU21623XXSP,2013-01-05 20:16:00,
2013-01-05 14:21:00,22.8,18.4,29.75,NNW,337,0.0,0.0,83,0.00,,,0.00,WUHU21623XXSP,2013-01-05 20:21:00,
2013-01-05 14:26:00,22.8,18.4,29.76,NNW,337,0.0,0.0,83,0.00,,,0.00,WUHU21623XXSP,2013-01-05 20:26:00,
2013-01-05 14:31:00,22.6,18.2,29.76,NNW,337,0.0,0.0,83,0.00,,,0.00,WUHU21623XXSP,2013-01-05 20:31:00,
2013-01-05 14:36:00,22.8,18.7,29.76,NNW,337,0.0,0.2,84,0.00,,,0.00,WUHU21623XXSP,2013-01-05 20:36:00,
2013-01-05 14:41:00,23.2,18.8,29.76,NNW,337,0.0,0.2,83,0.00,,,0.00,WUHU21623XXSP,2013-01-05 20:41:00,
2013-01-05 14:46:00,23.4,19.2,29.76,NNW,337,1.3,2.2,84,0.00,,,0.00,WUHU21623XXSP,2013-01-05 20:46:00,
2013-01-05 14:51:00,23.5,19.1,29.76,NNW,337,0.8,2.9,83,0.00,,,0.00,WUHU21623XXSP,2013-01-05 20:51:00,
2013-01-05 14:56:00,23.2,18.5,29.76,NNW,337,0.0,2.9,82,0.00,,,0.00,WUHU21623XXSP,2013-01-05 20:56:00,
2013-01-05 15:01:00,22.8,18.4,29.76,NNW,337,0.1,1.8,83,0.00,,,0.00,WUHU21623XXSP,2013-01-05 21:01:00,
2013-01-05 15:06:00,23.0,18.6,29.76,NW,315,2.5,2.5,83,0.00,,,0.00,WUHU21623XXSP,2013-01-05 21:06:00,
2013-01-05 15:11:00,23.2,18.5,29.76,NNW,337,3.1,3.4,82,0.00,,,0.00,WUHU21623XXSP,2013-01-05 21:11:00,
2013-01-05 15:16:00,22.8,18.4,29.76,NNW,337,0.7,3.4,83,0.00,,,0.00,WUHU21623XXSP,2013-01-05 21:16:00,
2013-01-05 15:21:00,22.8,18.4,29.76,NNW,337,1.1,2.2,83,0.00,,,0.00,WUHU21623XXSP,2013-01-05 21:21:00,
2013-01-05 15:26:00,22.8,18.4,29.77,NW,315,0.9,3.1,83,0.00,,,0.00,WUHU21623XXSP,2013-01-05 21:26:00,
2013-01-05 15:31:00,22.6,18.0,29.77,NW,315,1.4,3.4,82,0.00,,,0.00,WUHU21623XXSP,2013-01-05 21:31:00,
2013-01-05 15:36:00,22.5,17.8,29.77,NW,315,2.0,3.4,82,0.00,,,0.00,WUHU21623XXSP,2013-01-05 21:36:00,
2013-01-05 15:41:00,22.1,17.4,29.77,NNW,337,0.6,3.6,82,0.00,,,0.00,WUHU21623XXSP,2013-01-05 21:41:00,
2013-01-05 15:46:00,22.1,17.7,29.77,NW,315,3.1,3.6,83,0.00,,,0.00,WUHU21623XXSP,2013-01-05 21:46:00,
2013-01-05 15:51:00,21.9,17.5,29.77,NW,315,2.7,4.0,83,0.00,,,0.00,WUHU21623XXSP,2013-01-05 21:51:00,
2013-01-05 15:56:00,21.7,17.3,29.77,NNW,337,2.2,4.0,83,0.00,,,0.00,WUHU21623XXSP,2013-01-05 21:56:00,
2013-01-05 16:01:00,21.7,17.3,29.77,NW,318,1.7,4.0,83,0.00,,,0.00,WUHU21623XXSP,2013-01-05 22:01:00,
2013-01-05 16:06:00,21.6,17.1,29.78,NW,315,2.5,3.4,83,0.00,,,0.00,WUHU21623XXSP,2013-01-05 22:06:00,
2013-01-05 16:11:00,21.4,17.0,29.78,NW,315,2.0,3.4,83,0.00,,,0.00,WUHU21623XXSP,2013-01-05 22:11:00,
2013-01-05 16:16:00,21.4,17.0,29.77,NW,317,2.7,5.6,83,0.00,,,0.00,WUHU21623XXSP,2013-01-05 22:16:00,
2013-01-05 16:21:00,21.2,17.1,29.77,WNW,292,2.9,5.6,84,0.00,,,0.00,WUHU21623XXSP,2013-01-05 22:21:00,
2013-01-05 16:26:00,21.0,16.9,29.77,NNW,344,2.0,4.5,84,0.00,,,0.00,WUHU21623XXSP,2013-01-05 22:26:00,
2013-01-05 16:31:00,21.0,16.9,29.77,NW,315,1.3,4.5,84,0.00,,,0.00,WUHU21623XXSP,2013-01-05 22:31:00,
2013-01-05 16:36:00,20.8,16.7,29.77,NNW,337,3.1,4.0,84,0.00,,,0.00,WUHU21623XXSP,2013-01-05 22:36:00,
2013-01-05 16:41:00,20.8,16.7,29.78,NW,311,3.5,4.9,84,0.00,,,0.00,WUHU21623XXSP,2013-01-05 22:41:00,
2013-01-05 16:46:00,20.8,16.7,29.78,NW,305,2.1,5.1,84,0.00,,,0.00,WUHU21623XXSP,2013-01-05 22:46:00,
2013-01-05 16:51:00,20.8,16.7,29.78,WNW,292,4.7,5.1,84,0.00,,,0.00,WUHU21623XXSP,2013-01-05 22:51:00,
2013-01-05 16:56:00,20.7,16.5,29.78,NW,315,5.1,9.2,84,0.00,,,0.00,WUHU21623XXSP,2013-01-05 22:56:00,
2013-01-05 17:01:00,20.5,16.3,29.78,WNW,292,3.8,9.2,84,0.00,,,0.00,WUHU21623XXSP,2013-01-05 23:01:00,
2013-01-05 17:06:00,20.5,16.3,29.79,NW,315,4.7,6.7,84,0.00,,,0.00,WUHU21623XXSP,2013-01-05 23:06:00,
2013-01-05 17:11:00,20.5,16.3,29.79,NNW,337,1.7,4.7,84,0.00,,,0.00,WUHU21623XXSP,2013-01-05 23:11:00,
2013-01-05 17:16:00,20.5,16.6,29.79,NNW,337,1.1,4.5,85,0.00,,,0.00,WUHU21623XXSP,2013-01-05 23:16:00,
2013-01-05 17:21:00,20.5,16.6,29.80,NW,315,2.3,4.3,85,0.00,,,0.00,WUHU21623XXSP,2013-01-05 23:21:00,
2013-01-05 17:26:00,20.1,16.0,29.80,WNW,292,4.9,6.5,84,0.00,,,0.00,WUHU21623XXSP,2013-01-05 23:26:00,
2013-01-05 17:31:00,19.9,16.1,29.80,NNW,339,3.0,6.5,85,0.00,,,0.00,WUHU21623XXSP,2013-01-05 23:31:00,
2013-01-05 17:36:00,19.8,15.9,29.80,NW,323,3.6,7.4,85,0.00,,,0.00,WUHU21623XXSP,2013-01-05 23:36:00,
2013-01-05 17:41:00,19.6,15.7,29.80,NNW,333,1.8,7.4,85,0.00,,,0.00,WUHU21623XXSP,2013-01-05 23:41:00,
2013-01-05 17:46:00,19.6,15.7,29.80,NNW,335,2.6,6.9,85,0.00,,,0.00,WUHU21623XXSP,2013-01-05 23:46:00,
2013-01-05 17:51:00,19.2,15.3,29.80,NNW,337,3.6,6.7,85,0.00,,,0.00,WUHU21623XXSP,2013-01-05 23:51:00,
2013-01-05 17:56:00,19.2,15.3,29.80,NNW,337,5.8,6.7,85,0.00,,,0.00,WUHU21623XXSP,2013-01-05 23:56:00,
2013-01-05 18:01:00,19.2,15.3,29.80,NNW,337,3.4,6.5,85,0.00,,,0.00,WUHU21623XXSP,2013-01-06 00:01:00,
2013-01-05 18:06:00,19.0,15.2,29.80,NW,315,2.7,5.6,85,0.00,,,0.00,WUHU21623XXSP,2013-01-06 00:06:00,
2013-01-05 18:11:00,19.0,15.2,29.80,NW,315,1.7,4.7,85,0.00,,,0.00,WUHU21623XXSP,2013-01-06 00:11:00,
2013-01-05 18:16:00,19.0,15.2,29.79,NW,315,3.1,3.1,85,0.00,,,0.00,WUHU21623XXSP,2013-01-06 00:16:00,
2013-01-05 18:22:00,19.0,15.2,29.80,NNW,329,1.1,3.1,85,0.00,,,0.00,WUHU21623XXSP,2013-01-06 00:22:00,
2013-01-05 18:27:00,19.0,15.2,29.79,NNW,337,0.1,2.9,85,0.00,,,0.00,WUHU21623XXSP,2013-01-06 00:27:00,
2013-01-05 18:32:00,19.0,15.2,29.79,NNW,337,0.7,3.8,85,0.00,,,0.00,WUHU21623XXSP,2013-01-06 00:32:00,
2013-01-05 18:36:00,19.2,15.3,29.80,NNW,337,1.7,4.3,85,0.00,,,0.00,WUHU21623XXSP,2013-01-06 00:36:00,
2013-01-05 18:41:00,19.2,15.3,29.80,NW,306,2.3,4.3,85,0.00,,,0.00,WUHU21623XXSP,2013-01-06 00:41:00,
2013-01-05 18:46:00,19.2,15.3,29.80,WNW,292,0.0,4.0,85,0.00,,,0.00,WUHU21623XXSP,2013-01-06 00:46:00,
2013-01-05 18:51:00,19.2,15.3,29.80,WNW,292,0.0,2.7,85,0.00,,,0.00,WUHU21623XXSP,2013-01-06 00:51:00,
2013-01-05 18:56:00,19.2,15.3,29.80,WNW,292,0.0,0.0,85,0.00,,,0.00,WUHU21623XXSP,2013-01-06 00:56:00,
2013-01-05 19:01:00,19.2,15.3,29.80,NW,315,0.0,0.0,85,0.00,,,0.00,WUHU21623XXSP,2013-01-06 01:01:00,
2013-01-05 19:06:00,19.2,15.3,29.80,NW,315,0.5,1.8,85,0.00,,,0.00,WUHU21623XXSP,2013-01-06 01:06:00,
2013-01-05 19:11:00,19.2,15.3,29.80,NW,315,2.7,2.7,85,0.00,,,0.00,WUHU21623XXSP,2013-01-06 01:11:00,
2013-01-05 19:16:00,19.2,15.3,29.80,NW,315,3.4,3.4,85,0.00,,,0.00,WUHU21623XXSP,2013-01-06 01:16:00,
2013-01-05 19:21:00,19.2,15.3,29.81,NW,315,2.8,5.4,85,0.00,,,0.00,WUHU21623XXSP,2013-01-06 01:21:00,
2013-01-05 19:26:00,19.2,15.3,29.81,WNW,292,2.9,5.4,85,0.00,,,0.00,WUHU21623XXSP,2013-01-06 01:26:00,
2013-01-05 19:31:00,19.0,15.2,29.81,NW,310,3.7,6.3,85,0.00,,,0.00,WUHU21623XXSP,2013-01-06 01:31:00,
2013-01-05 19:36:00,18.9,15.0,29.81,WNW,299,2.8,6.3,85,0.00,,,0.00,WUHU21623XXSP,2013-01-06 01:36:00,
2013-01-05 19:41:00,18.9,15.0,29.82,WNW,292,4.3,4.9,85,0.00,,,0.00,WUHU21623XXSP,2013-01-06 01:41:00,
2013-01-05 19:46:00,18.7,14.8,29.81,NW,325,3.0,7.6,85,0.00,,,0.00,WUHU21623XXSP,2013-01-06 01:46:00,
2013-01-05 19:51:00,18.7,14.8,29.81,NW,315,1.9,7.6,85,0.00,,,0.00,WUHU21623XXSP,2013-01-06 01:51:00,
2013-01-05 19:56:00,18.7,14.8,29.81,NW,314,2.3,5.6,85,0.00,,,0.00,WUHU21623XXSP,2013-01-06 01:56:00,
2013-01-05 20:01:00,18.9,15.0,29.81,NW,315,3.6,5.1,85,0.00,,,0.00,WUHU21623XXSP,2013-01-06 02:01:00,
2013-01-05 20:06:00,18.9,15.0,29.81,NW,315,1.1,3.6,85,0.00,,,0.00,WUHU21623XXSP,2013-01-06 02:06:00,
2013-01-05 20:11:00,18.7,14.8,29.81,NNW,337,3.1,4.5,85,0.00,,,0.00,WUHU21623XXSP,2013-01-06 02:11:00,
2013-01-05 20:16:00,18.7,14.8,29.81,NNW,337,0.5,4.5,85,0.00,,,0.00,WUHU21623XXSP,2013-01-06 02:16:00,
2013-01-05 20:21:00,18.9,15.0,29.81,NNW,337,0.3,1.8,85,0.00,,,0.00,WUHU21623XXSP,2013-01-06 02:21:00,
2013-01-05 20:26:00,18.9,15.0,29.81,NNW,337,1.3,3.4,85,0.00,,,0.00,WUHU21623XXSP,2013-01-06 02:26:00,
2013-01-05 20:31:00,18.7,14.8,29.80,NNW,337,1.1,3.4,85,0.00,,,0.00,WUHU21623XXSP,2013-01-06 02:31:00,
2013-01-05 20:36:00,18.7,14.8,29.81,NW,315,4.4,5.6,85,0.00,,,0.00,WUHU21623XXSP,2013-01-06 02:36:00,
2013-01-05 20:41:00,18.7,14.8,29.82,NW,304,4.8,7.8,85,0.00,,,0.00,WUHU21623XXSP,2013-01-06 02:41:00,
2013-01-05 20:46:00,18.7,14.8,29.82,WNW,301,5.0,7.8,85,0.00,,,0.00,WUHU21623XXSP,2013-01-06 02:46:00,
2013-01-05 20:51:00,18.5,14.6,29.82,NW,306,5.3,7.8,85,0.00,,,0.00,WUHU21623XXSP,2013-01-06 02:51:00,
2013-01-05 20:56:00,18.3,14.4,29.83,NW,315,6.3,8.7,85,0.00,,,0.00,WUHU21623XXSP,2013-01-06 02:56:00,
2013-01-05 21:01:00,18.3,14.4,29.82,NNW,337,6.3,8.7,85,0.00,,,0.00,WUHU21623XXSP,2013-01-06 03:01:00,
2013-01-05 21:06:00,18.3,14.4,29.82,NW,315,7.4,8.7,85,0.00,,,0.00,WUHU21623XXSP,2013-01-06 03:06:00,
2013-01-05 21:11:00,18.3,14.4,29.83,WNW,292,4.3,8.7,85,0.00,,,0.00,WUHU21623XXSP,2013-01-06 03:11:00,
2013-01-05 21:16:00,18.3,14.4,29.83,NW,311,5.3,12.5,85,0.00,,,0.00,WUHU21623XXSP,2013-01-06 03:16:00,
2013-01-05 21:21:00,18.3,14.4,29.83,NW,315,5.1,12.5,85,0.00,,,0.00,WUHU21623XXSP,2013-01-06 03:21:00,
2013-01-05 21:26:00,18.3,14.4,29.83,WNW,292,3.4,6.0,85,0.00,,,0.00,WUHU21623XXSP,2013-01-06 03:26:00,
2013-01-05 21:31:00,18.3,14.4,29.83,NW,313,3.4,8.1,85,0.00,,,0.00,WUHU21623XXSP,2013-01-06 03:31:00,
2013-01-05 21:36:00,18.1,14.3,29.84,NW,315,6.0,8.1,85,0.00,,,0.00,WUHU21623XXSP,2013-01-06 03:36:00,
2013-01-05 21:41:00,18.1,14.3,29.84,NW,315,4.5,8.5,85,0.00,,,0.00,WUHU21623XXSP,2013-01-06 03:41:00,
2013-01-05 21:46:00,18.1,14.3,29.84,WNW,303,5.3,8.5,85,0.00,,,0.00,WUHU21623XXSP,2013-01-06 03:46:00,
2013-01-05 21:51:00,18.3,14.4,29.83,NW,319,4.5,8.7,85,0.00,,,0.00,WUHU21623XXSP,2013-01-06 03:51:00,
2013-01-05 21:56:00,18.3,14.4,29.83,NW,315,4.0,8.7,85,0.00,,,0.00,WUHU21623XXSP,2013-01-06 03:56:00,
2013-01-05 22:01:00,18.3,14.4,29.83,NW,315,3.3,6.5,85,0.00,,,0.00,WUHU21623XXSP,2013-01-06 04:01:00,
2013-01-05 22:06:00,18.3,14.4,29.83,NW,315,5.8,7.4,85,0.00,,,0.00,WUHU21623XXSP,2013-01-06 04:06:00,
2013-01-05 22:11:00,18.1,14.3,29.83,NW,315,3.8,7.4,85,0.00,,,0.00,WUHU21623XXSP,2013-01-06 04:11:00,
2013-01-05 22:16:00,18.1,14.3,29.83,WNW,292,3.6,5.1,85,0.00,,,0.00,WUHU21623XXSP,2013-01-06 04:16:00,
2013-01-05 22:21:00,18.3,14.4,29.83,NW,315,2.7,5.1,85,0.00,,,0.00,WUHU21623XXSP,2013-01-06 04:21:00,
2013-01-05 22:26:00,18.3,14.4,29.83,NW,310,2.7,5.8,85,0.00,,,0.00,WUHU21623XXSP,2013-01-06 04:26:00,
2013-01-05 22:31:00,18.3,14.4,29.83,NW,315,4.0,5.8,85,0.00,,,0.00,WUHU21623XXSP,2013-01-06 04:31:00,
2013-01-05 22:36:00,18.3,14.4,29.83,NW,315,5.4,6.0,85,0.00,,,0.00,WUHU21623XXSP,2013-01-06 04:36:00,
2013-01-05 22:41:00,18.3,14.4,29.84,NW,311,3.1,6.0,85,0.00,,,0.00,WUHU21623XXSP,2013-01-06 04:41:00,
2013-01-05 22:46:00,18.3,14.4,29.83,NW,315,3.0,6.0,85,0.00,,,0.00,WUHU21623XXSP,2013-01-06 04:46:00,
2013-01-05 22:51:00,18.3,14.4,29.83,NW,315,4.0,8.3,85,0.00,,,0.00,WUHU21623XXSP,2013-01-06 04:51:00,
2013-01-05 22:56:00,18.3,14.4,29.83,NW,315,2.5,8.3,85,0.00,,,0.00,WUHU21623XXSP,2013-01-06 04:56:00,
2013-01-05 23:00:00,18.3,14.4,29.83,NW,315,3.4,8.3,85,0.00,,,0.00,WUHU21623XXSP,2013-01-06 05:00:00,
2013-01-05 23:02:00,18.3,14.4,29.83,NW,315,2.0,7.2,85,0.00,,,0.00,WUHU21623XXSP,2013-01-06 05:02:00,
2013-01-05 23:07:00,18.3,14.4,29.83,NW,306,4.0,6.0,85,0.00,,,0.00,WUHU21623XXSP,2013-01-06 05:07:00,
2013-01-05 23:12:00,18.3,14.4,29.84,NW,315,3.8,6.0,85,0.00,,,0.00,WUHU21623XXSP,2013-01-06 05:12:00,
2013-01-05 23:17:00,18.3,14.4,29.83,NNW,327,1.6,7.4,85,0.00,,,0.00,WUHU21623XXSP,2013-01-06 05:17:00,
2013-01-05 23:22:00,18.3,14.4,29.83,NW,315,5.1,7.4,85,0.00,,,0.00,WUHU21623XXSP,2013-01-06 05:22:00,
2013-01-05 23:27:00,18.3,14.4,29.83,NW,315,2.9,5.8,85,0.00,,,0.00,WUHU21623XXSP,2013-01-06 05:27:00,
2013-01-05 23:32:00,18.3,14.4,29.83,WNW,295,2.2,5.8,85,0.00,,,0.00,WUHU21623XXSP,2013-01-06 05:32:00,
2013-01-05 23:37:00,18.3,14.4,29.83,NW,311,3.7,6.7,85,0.00,,,0.00,WUHU21623XXSP,2013-01-06 05:37:00,
2013-01-05 23:42:00,18.3,14.4,29.83,NW,315,3.6,8.9,85,0.00,,,0.00,WUHU21623XXSP,2013-01-06 05:42:00,
2013-01-05 23:47:00,18.3,14.4,29.83,WNW,290,3.3,8.9,85,0.00,,,0.00,WUHU21623XXSP,2013-01-06 05:47:00,
2013-01-05 23:52:00,18.3,14.4,29.83,NW,315,4.9,7.2,85,0.00,,,0.00,WUHU21623XXSP,2013-01-06 05:52:00,
2013-01-05 23:57:00,18.3,14.4,29.83,NW,306,3.8,6.7,85,0.00,,,0.00,WUHU21623XXSP,2013-01-06 05:57:00,